SAMSAT-IONOSPHERE (RS7*)

Last updated on Mon Nov 03 2025 00:03:22 GMT+0000 (Coordinated Universal Time)

1 61784U 24199BB 25306.56362892 .00028675 00000+0 71952-3 0 9992 2 61784 97.3280 174.6800 0014432 37.9603 322.2657 15.39872095102497
UTC large
Height (km)
Speed (km/s)
/
Latitude / Longitude
Inclination (degrees)
Orbital Period (minutes)
Azimuth
Elevation
Range (km)
Doppler Factor

Next 0 passes for location: London (51.5072 / 0.1276)

Sorry there are no passes over London.